K2NV Weather Reports


time (UTC)temp
C
wind
direction
speed
KPH
gust
KPH
rain 1hr
cm
rain 24hr
cm
rain mn
cm
humidity
%
barometer
mb
20260504001917 12 253 14.5 20.9 0.00 0.00 0.00 59 1008.2
20260504001418 12 249 20.9 32.2 0.00 0.00 0.00 59 1008.2
20260504000916 12 260 25.7 32.2 0.00 0.00 0.00 59 1008.2
20260504000416 12 259 20.9 32.2 0.00 0.00 0.00 60 1008.2
20260503235917 12 262 16.1 32.2 0.00 0.00 0.00 61 1008.3
20260503235416 12 258 22.5 32.2 0.00 0.00 0.00 61 1008.3
20260503234915 12 261 16.1 19.3 0.00 0.00 0.00 61 1008.5
20260503234417 12 260 19.3 29.0 0.00 0.00 0.00 61 1008.4
20260503233916 12 269 19.3 25.7 0.00 0.00 0.00 61 1008.5
20260503233417 12 265 16.1 25.7 0.00 0.00 0.00 61 1008.5
20260503232915 12 260 16.1 20.9 0.00 0.00 0.00 61 1008.5
20260503232418 12 259 22.5 29.0 0.00 0.00 0.00 61 1008.6
20260503231917 12 253 12.9 16.1 0.00 0.00 0.00 62 1008.6
20260503231417 12 259 16.1 25.7 0.00 0.00 0.00 63 1008.6
20260503230916 11 260 16.1 22.5 0.00 0.00 0.00 65 1008.6
20260503230418 11 238 11.3 19.3 0.00 0.00 0.00 67 1008.6
20260503225917 11 264 11.3 12.9 0.00 0.00 0.00 67 1008.7
20260503225415 12 269 12.9 19.3 0.00 0.00 0.00 66 1008.7
20260503224916 12 266 20.9 29.0 0.00 0.00 0.00 66 1008.7
20260503224415 12 272 19.3 29.0 0.00 0.00 0.00 65 1008.8
20260503223915 12 267 12.9 24.1 0.00 0.00 0.00 65 1008.8
20260503223416 12 263 11.3 22.5 0.00 0.00 0.00 64 1008.8
20260503222916 12 259 20.9 27.4 0.00 0.00 0.00 63 1008.9
20260503222415 12 260 20.9 22.5 0.00 0.00 0.00 62 1008.9
20260503221918 12 268 19.3 22.5 0.00 0.00 0.00 63 1009.0
20260503221417 12 274 19.3 24.1 0.00 0.00 0.00 64 1008.9
20260503220916 11 267 14.5 25.7 0.00 0.00 0.00 66 1008.9
20260503220417 11 268 19.3 24.1 0.00 0.00 0.00 67 1008.9
20260503215918 11 259 19.3 25.7 0.00 0.00 0.00 67 1009.0
20260503215417 11 261 19.3 32.2 0.00 0.00 0.00 67 1009.0
20260503214918 11 258 22.5 32.2 0.00 0.00 0.00 67 1009.0
20260503214417 11 260 14.5 25.7 0.00 0.00 0.00 68 1008.9
20260503213917 11 252 22.5 27.4 0.00 0.00 0.00 67 1008.8
20260503213416 11 254 20.9 24.1 0.00 0.00 0.00 68 1008.7
20260503212919 11 252 19.3 19.3 0.00 0.00 0.00 67 1008.6
20260503212417 11 250 19.3 27.4 0.00 0.00 0.00 67 1008.6
20260503211916 11 248 19.3 29.0 0.00 0.00 0.00 67 1008.5
20260503211418 11 255 20.9 27.4 0.00 0.00 0.00 67 1008.5
20260503210917 11 266 20.9 33.8 0.00 0.00 0.00 67 1008.5
20260503210416 11 253 20.9 24.1 0.00 0.00 0.00 67 1008.6
20260503205918 11 252 24.1 32.2 0.00 0.00 0.00 66 1008.5
20260503205417 11 264 22.5 32.2 0.00 0.00 0.00 67 1008.6
20260503204916 11 256 22.5 32.2 0.00 0.00 0.00 67 1008.7
20260503204418 10 251 22.5 35.4 0.00 0.00 0.00 67 1008.7
20260503203917 10 251 22.5 40.2 0.00 0.00 0.00 67 1008.8
20260503203416 10 262 14.5 27.4 0.00 0.00 0.00 68 1008.8
20260503202917 10 256 16.1 32.2 0.00 0.00 0.00 67 1008.9
20260503202418 10 258 22.5 32.2 0.00 0.00 0.00 67 1008.9
20260503201917 11 247 16.1 29.0 0.00 0.00 0.00 67 1008.9
20260503201417 11 247 22.5 32.2 0.00 0.00 0.00 67 1009.1
20260503200918 11 251 14.5 20.9 0.00 0.00 0.00 66 1009.1
20260503200417 11 245 25.7 40.2 0.00 0.00 0.00 66 1009.1
20260503195916 11 236 24.1 35.4 0.00 0.00 0.00 66 1009.2
20260503195418 11 247 22.5 32.2 0.00 0.00 0.00 65 1009.2
20260503194917 11 239 19.3 25.7 0.00 0.00 0.00 65 1009.2
20260503193917 11 242 16.1 22.5 0.00 0.00 0.00 66 1009.4
20260503193419 11 259 25.7 35.4 0.00 0.00 0.00 63 1009.6
20260503192917 11 263 22.5 35.4 0.00 0.00 0.00 65 1009.6
20260503192417 11 250 19.3 24.1 0.00 0.00 0.00 64 1009.7
20260503191918 12 252 25.7 40.2 0.00 0.00 0.00 63 1009.7
20260503191417 11 261 25.7 38.6 0.00 0.00 0.00 62 1009.9
20260503190916 11 245 20.9 27.4 0.00 0.00 0.00 64 1009.9
20260503190417 11 240 27.4 37.0 0.00 0.00 0.00 63 1010.0
20260503185917 11 241 22.5 35.4 0.00 0.00 0.00 63 1010.0
20260503185418 11 238 22.5 37.0 0.00 0.00 0.00 62 1010.0
20260503184917 12 240 22.5 32.2 0.00 0.00 0.00 62 1010.2
20260503184416 12 234 22.5 41.8 0.00 0.00 0.00 63 1010.2
20260503183917 11 253 19.3 32.2 0.00 0.00 0.00 63 1010.3
20260503183416 11 248 27.4 40.2 0.00 0.00 0.00 63 1010.4
20260503182917 11 252 16.1 25.7 0.00 0.00 0.00 62 1010.4
20260503182417 11 239 20.9 38.6 0.00 0.00 0.00 61 1010.5
20260503181916 11 247 20.9 45.1 0.00 0.00 0.00 61 1010.6
20260503181418 11 248 25.7 35.4 0.00 0.00 0.00 59 1010.6
20260503180917 11 251 22.5 29.0 0.00 0.00 0.00 59 1010.7
20260503180416 11 240 25.7 33.8 0.00 0.00 0.00 57 1010.8
20260503175918 11 231 19.3 35.4 0.00 0.00 0.00 56 1010.9
20260503175417 11 245 22.5 35.4 0.00 0.00 0.00 56 1010.9
20260503174916 11 242 24.1 32.2 0.00 0.00 0.00 55 1011.0
20260503174418 11 243 25.7 38.6 0.00 0.00 0.00 57 1011.1
20260503173917 11 240 19.3 32.2 0.00 0.00 0.00 59 1011.2
20260503173416 10 252 16.1 25.7 0.00 0.00 0.00 61 1011.3
20260503172918 10 254 24.1 40.2 0.00 0.00 0.00 61 1011.4
20260503171916 10 237 19.3 32.2 0.00 0.00 0.00 63 1011.5
20260503171418 10 240 19.3 27.4 0.00 0.00 0.00 66 1011.7
20260503170917 10 228 14.5 25.7 0.00 0.00 0.00 67 1011.8
20260503170416 10 250 16.1 20.9 0.00 0.00 0.00 67 1011.8
20260503150917 10 246 11.3 19.3 0.00 0.00 0.00 64 1013.0
20260503150418 10 241 12.9 22.5 0.00 0.00 0.00 55 1012.9
20260503131416 7 247 14.5 20.9 0.00 0.00 0.00 76 1013.0
20260503130918 7 248 12.9 19.3 0.00 0.00 0.00 76 1013.1
20260503130417 7 243 12.9 24.1 0.00 0.00 0.00 76 1013.1
20260503110418 2 200 4.8 4.8 0.00 0.00 0.00 80 1013.2
20260503090417 1 262 3.2 3.2 0.00 0.00 0.00 76 1013.5
20260503081416 1 275 4.8 4.8 0.00 0.00 0.00 77 1013.8
20260503080917 1 260 3.2 4.8 0.00 0.00 0.00 78 1013.8
20260503080417 1 277 4.8 8.0 0.00 0.00 0.00 78 1013.8
20260503072916 2 266 4.8 4.8 0.00 0.00 0.00 80 1013.7
20260503071916 2 267 3.2 4.8 0.00 0.00 0.00 80 1013.7
20260503071418 2 271 4.8 4.8 0.00 0.00 0.00 81 1013.7
20260503070917 2 266 4.8 4.8 0.00 0.00 0.00 80 1013.7
20260503054917 2 261 3.2 4.8 0.00 0.00 0.00 79 1014.0
20260503054417 2 260 4.8 4.8 0.00 0.00 0.00 78 1014.0
20260503053918 2 250 4.8 4.8 0.00 0.00 0.00 78 1014.0
20260503053417 2 255 4.8 8.0 0.00 0.00 0.00 78 1014.0
20260503052916 2 250 4.8 8.0 0.00 0.00 0.00 78 1014.0
20260503052417 2 251 4.8 4.8 0.00 0.00 0.00 77 1014.1
20260503051918 2 248 3.2 4.8 0.00 0.00 0.00 77 1014.1
20260503051417 2 253 4.8 8.0 0.00 0.00 0.00 77 1014.1
20260503050918 2 251 4.8 4.8 0.00 0.00 0.00 77 1014.1
20260503050417 2 249 4.8 8.0 0.00 0.00 0.00 77 1014.2
20260503045916 2 249 4.8 8.0 0.00 0.00 0.00 77 1014.2
20260503045417 3 248 4.8 8.0 0.00 0.00 0.00 77 1014.2
20260503044417 3 247 4.8 4.8 0.00 0.00 0.00 78 1014.3
20260503043916 3 246 3.2 8.0 0.00 0.00 0.00 78 1014.3
20260503043417 3 259 4.8 4.8 0.00 0.00 0.00 78 1014.3
20260503042916 3 243 3.2 4.8 0.00 0.00 0.00 78 1014.3
20260503042417 3 251 4.8 8.0 0.00 0.00 0.00 78 1014.4
20260503041917 3 256 3.2 4.8 0.00 0.00 0.00 78 1014.4
20260503041417 3 257 4.8 4.8 0.00 0.00 0.00 78 1014.5
20260503040918 3 257 4.8 4.8 0.00 0.00 0.00 78 1014.5
20260503040417 3 253 4.8 8.0 0.00 0.00 0.00 78 1014.5
20260503035918 3 257 4.8 8.0 0.00 0.00 0.00 79 1014.5
20260503035417 3 255 3.2 8.0 0.00 0.00 0.00 79 1014.5
20260503034916 3 241 4.8 8.0 0.00 0.00 0.00 79 1014.5
20260503034417 3 247 4.8 8.0 0.00 0.00 0.00 78 1014.5
20260503033917 3 242 4.8 8.0 0.00 0.00 0.00 78 1014.5
20260503032918 3 243 4.8 4.8 0.00 0.00 0.00 78 1014.5
20260503032417 3 224 3.2 8.0 0.00 0.00 0.00 79 1014.6
20260503031918 3 222 3.2 8.0 0.00 0.00 0.00 79 1014.6
20260503031417 4 225 3.2 4.8 0.00 0.00 0.00 79 1014.6
20260503030918 4 230 3.2 4.8 0.00 0.00 0.00 79 1014.5
20260503030417 4 214 4.8 4.8 0.00 0.00 0.00 79 1014.6
20260503025916 4 228 3.2 3.2 0.00 0.00 0.00 79 1014.6
20260503025417 4 218 3.2 4.8 0.00 0.00 0.00 79 1014.7
20260503024917 4 215 3.2 4.8 0.00 0.00 0.00 79 1014.7
20260503024417 4 217 1.6 3.2 0.00 0.00 0.00 79 1014.7
20260503023916 4 215 3.2 4.8 0.00 0.00 0.00 78 1014.7
20260503023417 4 228 4.8 4.8 0.00 0.00 0.00 78 1014.8
20260503022918 4 193 1.6 4.8 0.00 0.00 0.00 78 1014.8
20260503022416 4 193 1.6 3.2 0.00 0.00 0.00 78 1014.8
20260503021917 5 193 1.6 1.6 0.00 0.00 0.00 78 1014.8
20260503021416 5 180 3.2 3.2 0.00 0.00 0.00 77 1014.8
20260503020917 5 193 1.6 3.2 0.00 0.00 0.00 77 1014.8
20260503020417 5 193 1.6 1.6 0.00 0.00 0.00 76 1014.8
20260503015918 5 193 1.6 4.8 0.00 0.00 0.00 76 1014.9
20260503014916 5 191 3.2 4.8 0.00 0.00 0.00 75 1014.9
20260503014418 5 197 3.2 4.8 0.00 0.00 0.00 75 1014.8
20260503013917 5 207 3.2 4.8 0.00 0.00 0.00 75 1014.9
20260503013418 5 213 3.2 4.8 0.00 0.00 0.00 75 1014.9
20260503012917 5 228 1.6 4.8 0.00 0.00 0.00 74 1015.0
20260503012417 5 246 3.2 4.8 0.00 0.00 0.00 74 1014.9
20260503011918 5 255 3.2 4.8 0.00 0.00 0.00 74 1014.9
20260503011417 5 244 3.2 3.2 0.00 0.00 0.00 73 1014.9
20260503010918 5 255 3.2 4.8 0.00 0.00 0.00 73 1014.8
20260503010417 5 311 3.2 4.8 0.00 0.00 0.00 73 1014.8
20260503005917 5 311 1.6 1.6 0.00 0.00 0.00 73 1014.8
20260503005417 5 311 1.6 3.2 0.00 0.00 0.00 74 1014.8
20260503004916 5 298 9.7 12.9 0.00 0.00 0.00 74 1014.9
20260503004417 5 299 8.0 9.7 0.00 0.00 0.00 75 1014.9
20260503003916 5 281 4.8 9.7 0.00 0.00 0.00 75 1014.8
20260503003417 5 291 8.0 12.9 0.00 0.00 0.00 75 1014.8
20260503002917 5 276 4.8 8.0 0.00 0.00 0.00 75 1014.8
20260503002417 5 296 4.8 4.8 0.00 0.00 0.00 74 1014.7